Home > Weather > Villeurbanne > Past weeks

Flag for France Past Weather in Villeurbanne, Rhône-Alpes, France — Yesterday and Last 2 Weeks

Now
64 °F

Clear.


Feels Like: 64 °F
Forecast: 57 / 75 °F
Wind: No wind

Location: Lyon / Bron

Current Time: Jun 27, 2016 at 12:41:07 AM

Latest Report: Jun 27, 2016 at 12:00 AM


Visibility: 10 mi

Pressure: 30.18 "Hg

Humidity: 56%

Dew Point: 48 °F

Location of VilleurbanneLocation

Past Weather in Villeurbanne — Graph

°F

Villeurbanne Temperature Yesterday

Maximum temperature yesterday: 75 °F (at 3:30 PM)
Minimum temperature yesterday: 61 °F (at 4:00 AM)
Average temperature yesterday: 68 °F

High & Low Weather Summary for the Past Weeks

 TemperatureHumidityPressure
High91 °F (Jun 23, 3:30 PM)100% (Jun 16, 3:30 AM)30.27 "Hg (Jun 16, 3:30 AM)
Low54 °F (Jun 20, 4:00 AM)29% (Jun 23, 8:00 PM)29.53 "Hg (Jun 15, 8:00 PM)
Average68 °F68%29.98 "Hg
* Reported Jun 11 11:00 PM — Jun 26 11:30 PM, Villeurbanne, Weather by CustomWeather, © 2016

Note: Actual official high and low records may vary slightly from our data, if they occured in-between our weather recording intervals... More about our weather records

Advertising

Villeurbanne Weather History for the Previous 24 Hours

Scroll right to see more
 ConditionsComfort  
Time TempWeatherWind HumidityBarometerVisibility
11:30 PM
Sun, Jun 26
64 °FClear.No wind56%30.18 "Hg10 mi
11:00 PM66 °FClear.3 mph52%30.18 "Hg10 mi
10:30 PM66 °FSunny.No wind52%30.15 "Hg10 mi
10:00 PM66 °FSunny.No wind52%30.15 "Hg10 mi
9:30 PM68 °FSunny.7 mph49%30.15 "Hg10 mi
9:00 PM70 °FSunny.9 mph43%30.12 "Hg10 mi
8:30 PM72 °FSunny.12 mph41%30.12 "Hg10 mi
8:00 PM73 °FPassing clouds.7 mph38%30.12 "HgN/A
7:30 PM72 °FPassing clouds.8 mph41%30.12 "HgN/A
7:00 PM73 °FSunny.9 mph38%30.09 "Hg10 mi
6:30 PM72 °FPassing clouds.8 mph41%30.09 "HgN/A
6:00 PM75 °FPassing clouds.10 mph36%30.09 "HgN/A
5:30 PM75 °FSunny.10 mph39%30.09 "Hg10 mi
5:00 PM75 °FSunny.10 mph36%30.09 "Hg10 mi
4:30 PM75 °FPassing clouds.9 mph39%30.09 "HgN/A
4:00 PM73 °FPassing clouds.10 mph41%30.09 "HgN/A
3:30 PM75 °FPassing clouds.8 mph36%30.09 "HgN/A
3:00 PM73 °FPassing clouds.7 mph41%30.09 "HgN/A
2:30 PM73 °FPassing clouds.8 mph41%30.09 "HgN/A
2:00 PM73 °FPassing clouds.10 mph44%30.09 "HgN/A
1:30 PM72 °FPartly sunny.9 mph44%30.12 "HgN/A
1:00 PM72 °FBroken clouds.13 mph44%30.12 "HgN/A
12:30 PM73 °FPassing clouds.9 mph44%30.09 "HgN/A
12:00 PM72 °FPassing clouds.10 mph44%30.12 "HgN/A
11:30 AM72 °FPassing clouds.8 mph47%30.12 "HgN/A
11:00 AM72 °FPassing clouds.9 mph50%30.12 "HgN/A
10:30 AM70 °FPartly sunny.7 mph57%30.12 "HgN/A
10:00 AM70 °FPassing clouds.9 mph60%30.12 "HgN/A
9:30 AM68 °FPassing clouds.6 mph64%30.12 "HgN/A
9:00 AM66 °FSunny.9 mph64%30.12 "Hg10 mi
8:30 AM66 °FPassing clouds.9 mph64%30.09 "HgN/A
8:00 AM64 °FSunny.2 mph73%30.09 "Hg10 mi
7:30 AM64 °FSunny.No wind73%30.09 "Hg10 mi
7:00 AM63 °FSunny.No wind77%30.09 "Hg10 mi
6:30 AM61 °FClear.No wind77%30.09 "Hg10 mi
6:00 AM61 °FClear.No wind77%30.09 "Hg10 mi
5:30 AM61 °FClear.No wind77%30.07 "Hg10 mi
5:00 AM61 °FClear.No wind77%30.07 "Hg10 mi
4:30 AM61 °FClear.No wind88%30.07 "Hg10 mi
4:00 AM61 °FClear.No wind83%30.07 "Hg10 mi
3:30 AM63 °FClear.No wind83%30.07 "Hg10 mi
3:00 AM63 °FClear.No wind83%30.07 "Hg10 mi
2:30 AM64 °FClear.No wind78%30.07 "Hg10 mi
2:00 AM64 °FClear.No wind78%30.07 "Hg10 mi
1:30 AM66 °FClear.No wind78%30.07 "Hg10 mi
1:00 AM66 °FClear.No wind78%30.07 "Hg10 mi
12:30 AM66 °FClear.No wind78%30.07 "Hg10 mi
12:00 AM68 °FClear.No wind73%30.07 "Hg10 mi
Weather by CustomWeather, © 2016

See weather overviewHow to use our weather pages